Location: La Brionne
(46.1728°N, 1.7849°E)
Time: 19:32:41
(UTC+00:00)

USA 267 - Pass Details

Date: 30 October 2021
Orbit: 1101 x 1107 km, 123.0° (Epoch: 27 November)

Event Time Altitude Azimuth Distance (km) Brightness Sun altitude
Exits shadow 18:52:31 26° 145° (SE) 2,000 4.3 -23.2°
Maximum altitude 18:56:23 68° 222° (SW) 1,176 3.4 -23.9°
Drops below altitude 10° 19:02:54 10° 305° (NW) 2,963 6.3 -25.0°
Sets 19:05:25 0° 308° (NW) 3,924 7.1 -25.4°
